| time (UTC) | temp F | wind direction | speed MPH | gust MPH | rain 1hr in | rain 24hr in | rain mn in | humidity % | barometer mb |
| 20260901080637 | 57 | 48 | 3.0 | 3.0 | 0.00 | 0.00 | 0.00 | 82 | 1009.0 |
| 20260901080136 | 57 | 22 | 2.0 | 3.0 | 0.00 | 0.00 | 0.00 | 81 | 1008.9 |
| 20260901075631 | 58 | 29 | 0.0 | 1.0 | 0.00 | 0.00 | 0.00 | 80 | 1009.0 |
| 20260901075131 | 58 | 39 | 1.0 | 2.0 | 0.00 | 0.00 | 0.00 | 80 | 1009.1 |
| 20260901074630 | 58 | 38 | 2.0 | 2.0 | 0.00 | 0.00 | 0.00 | 80 | 1009.1 |
| 20260901074125 | 58 | 47 | 3.0 | 3.0 | 0.00 | 0.00 | 0.00 | 79 | 1009.0 |
| 20260901073622 | 58 | 37 | 2.0 | 2.0 | 0.00 | 0.00 | 0.00 | 79 | 1009.1 |
| 20260901073117 | 58 | 44 | 2.0 | 2.0 | 0.00 | 0.00 | 0.00 | 79 | 1009.0 |
| 20260901072613 | 58 | 64 | 2.0 | 2.0 | 0.00 | 0.00 | 0.00 | 79 | 1009.2 |
| 20260901072107 | 58 | 56 | 2.0 | 2.0 | 0.00 | 0.00 | 0.00 | 79 | 1009.0 |
| 20260901071602 | 58 | 23 | 2.0 | 2.0 | 0.00 | 0.00 | 0.00 | 79 | 1009.1 |
| 20260901071100 | 59 | 68 | 2.0 | 2.0 | 0.00 | 0.00 | 0.00 | 78 | 1009.0 |
| 20260901070555 | 59 | 70 | 2.0 | 2.0 | 0.00 | 0.00 | 0.00 | 77 | 1009.1 |
| 20260901070050 | 59 | 47 | 2.0 | 2.0 | 0.00 | 0.00 | 0.00 | 77 | 1009.1 |
| 20260901065544 | 60 | 42 | 2.0 | 2.0 | 0.00 | 0.00 | 0.00 | 76 | 1009.2 |
| 20260901065039 | 60 | 42 | 2.0 | 2.0 | 0.00 | 0.00 | 0.00 | 76 | 1009.1 |
| 20260901064537 | 60 | 25 | 1.0 | 2.0 | 0.00 | 0.00 | 0.00 | 76 | 1009.3 |
| 20260901064033 | 59 | 35 | 2.0 | 2.0 | 0.00 | 0.00 | 0.00 | 77 | 1009.3 |
| 20260901063530 | 59 | 42 | 2.0 | 3.0 | 0.00 | 0.00 | 0.00 | 78 | 1009.0 |
| 20260901063025 | 59 | 33 | 2.0 | 3.0 | 0.00 | 0.00 | 0.00 | 78 | 1009.3 |
| 20260901062521 | 59 | 29 | 2.0 | 2.0 | 0.00 | 0.00 | 0.00 | 78 | 1009.3 |
| 20260901062017 | 60 | 39 | 3.0 | 3.0 | 0.00 | 0.00 | 0.00 | 75 | 1009.2 |
| 20260901061513 | 61 | 6 | 2.0 | 3.0 | 0.00 | 0.00 | 0.00 | 74 | 1009.1 |
| 20260901061007 | 62 | 24 | 2.0 | 2.0 | 0.00 | 0.00 | 0.00 | 72 | 1009.3 |
| 20260901060501 | 62 | 19 | 2.0 | 2.0 | 0.00 | 0.00 | 0.00 | 72 | 1009.6 |
| 20260901055955 | 62 | 27 | 2.0 | 3.0 | 0.00 | 0.00 | 0.00 | 72 | 1009.6 |
| 20260901055452 | 62 | 32 | 2.0 | 3.0 | 0.00 | 0.00 | 0.00 | 72 | 1009.4 |
| 20260901054948 | 62 | 10 | 2.0 | 3.0 | 0.00 | 0.00 | 0.00 | 72 | 1009.3 |
| 20260901054445 | 62 | 12 | 2.0 | 2.0 | 0.00 | 0.00 | 0.00 | 72 | 1009.6 |
| 20260901053941 | 62 | 45 | 2.0 | 2.0 | 0.00 | 0.00 | 0.00 | 72 | 1009.5 |
| 20260901053436 | 61 | 99 | 0.0 | 2.0 | 0.00 | 0.00 | 0.00 | 72 | 1009.8 |
| 20260901052931 | 62 | 337 | 2.0 | 2.0 | 0.00 | 0.00 | 0.00 | 72 | 1009.7 |
| 20260901052426 | 61 | 342 | 2.0 | 3.0 | 0.00 | 0.00 | 0.00 | 73 | 1009.6 |
| 20260901051920 | 61 | 43 | 0.0 | 3.0 | 0.00 | 0.00 | 0.00 | 74 | 1009.7 |
| 20260901051416 | 61 | 166 | 0.0 | 1.0 | 0.00 | 0.00 | 0.00 | 73 | 1009.6 |
| 20260901050910 | 61 | 29 | 0.0 | 1.0 | 0.00 | 0.00 | 0.00 | 72 | 1009.7 |
| 20260901050406 | 62 | 50 | 0.0 | 0.0 | 0.00 | 0.00 | 0.00 | 72 | 1009.6 |
| 20260901045905 | 63 | 327 | 0.0 | 2.0 | 0.00 | 0.00 | 0.00 | 69 | 1009.6 |
| 20260901045400 | 62 | 43 | 1.0 | 3.0 | 0.00 | 0.00 | 0.00 | 69 | 1009.8 |
| 20260901044855 | 62 | 291 | 1.0 | 2.0 | 0.00 | 0.00 | 0.00 | 70 | 1009.7 |
| 20260901044351 | 62 | 17 | 2.0 | 2.0 | 0.00 | 0.00 | 0.00 | 70 | 1009.5 |
| 20260901043847 | 62 | 53 | 0.0 | 2.0 | 0.00 | 0.00 | 0.00 | 69 | 1009.6 |
| 20260901043343 | 63 | 49 | 0.0 | 3.0 | 0.00 | 0.00 | 0.00 | 69 | 1009.5 |
| 20260901042842 | 63 | 88 | 1.0 | 4.0 | 0.00 | 0.00 | 0.00 | 69 | 1009.4 |
| 20260901042337 | 63 | 113 | 2.0 | 3.0 | 0.00 | 0.00 | 0.00 | 69 | 1009.6 |
| 20260901041833 | 63 | 288 | 1.0 | 4.0 | 0.00 | 0.00 | 0.00 | 68 | 1009.4 |
| 20260901041328 | 63 | 336 | 2.0 | 4.0 | 0.00 | 0.00 | 0.00 | 69 | 1009.4 |
| 20260901040828 | 63 | 351 | 3.0 | 4.0 | 0.00 | 0.00 | 0.00 | 68 | 1009.5 |
| 20260901040327 | 63 | 349 | 2.0 | 4.0 | 0.00 | 0.00 | 0.00 | 68 | 1009.5 |
| 20260901035826 | 63 | 12 | 2.0 | 5.0 | 0.00 | 0.00 | 0.00 | 67 | 1009.2 |
| 20260901035325 | 63 | 359 | 2.0 | 5.0 | 0.00 | 0.00 | 0.00 | 68 | 1009.2 |
| 20260901034824 | 63 | 352 | 3.0 | 5.0 | 0.00 | 0.00 | 0.00 | 68 | 1009.3 |
| 20260901034319 | 63 | 357 | 3.0 | 5.0 | 0.00 | 0.00 | 0.00 | 68 | 1009.3 |
| 20260901033813 | 63 | 18 | 2.0 | 7.0 | 0.00 | 0.00 | 0.00 | 68 | 1009.0 |
| 20260901033313 | 63 | 348 | 4.0 | 4.0 | 0.00 | 0.00 | 0.00 | 68 | 1009.2 |
| 20260901032811 | 63 | 351 | 2.0 | 5.0 | 0.00 | 0.00 | 0.00 | 68 | 1009.3 |
| 20260901032311 | 63 | 338 | 4.0 | 5.0 | 0.00 | 0.00 | 0.00 | 68 | 1009.2 |
| 20260901031801 | 63 | 324 | 6.0 | 6.0 | 0.00 | 0.00 | 0.00 | 69 | 1009.2 |
| 20260901031257 | 63 | 339 | 4.0 | 5.0 | 0.00 | 0.00 | 0.00 | 69 | 1009.1 |
| 20260901030756 | 63 | 359 | 4.0 | 6.0 | 0.00 | 0.00 | 0.00 | 68 | 1009.3 |
| 20260901030256 | 64 | 286 | 2.0 | 6.0 | 0.00 | 0.00 | 0.00 | 68 | 1009.2 |
| 20260901025751 | 64 | 333 | 4.0 | 5.0 | 0.00 | 0.00 | 0.00 | 68 | 1009.4 |
| 20260901025246 | 64 | 345 | 1.0 | 8.0 | 0.00 | 0.00 | 0.00 | 69 | 1009.3 |
| 20260901024741 | 64 | 354 | 3.0 | 4.0 | 0.00 | 0.00 | 0.00 | 69 | 1009.3 |
| 20260901024240 | 64 | 346 | 2.0 | 3.0 | 0.00 | 0.00 | 0.00 | 69 | 1009.1 |
| 20260901023738 | 64 | 3 | 2.0 | 3.0 | 0.00 | 0.00 | 0.00 | 68 | 1009.2 |
| 20260901023233 | 64 | 8 | 2.0 | 4.0 | 0.00 | 0.00 | 0.00 | 68 | 1009.4 |
| 20260901022729 | 64 | 56 | 1.0 | 4.0 | 0.00 | 0.00 | 0.00 | 68 | 1009.5 |
| 20260901022224 | 64 | 47 | 2.0 | 3.0 | 0.00 | 0.00 | 0.00 | 68 | 1009.4 |
| 20260901021719 | 64 | 4 | 2.0 | 4.0 | 0.00 | 0.00 | 0.00 | 67 | 1009.5 |
| 20260901021214 | 65 | 31 | 2.0 | 4.0 | 0.00 | 0.00 | 0.00 | 67 | 1009.5 |
| 20260901020704 | 65 | 84 | 2.0 | 4.0 | 0.00 | 0.00 | 0.00 | 67 | 1009.6 |
| 20260901020159 | 65 | 61 | 2.0 | 3.0 | 0.00 | 0.00 | 0.00 | 67 | 1009.6 |
| 20260901015649 | 65 | 18 | 1.0 | 2.0 | 0.00 | 0.00 | 0.00 | 67 | 1009.7 |
| 20260901015148 | 65 | 61 | 2.0 | 5.0 | 0.00 | 0.00 | 0.00 | 67 | 1009.7 |
| 20260901014643 | 65 | 7 | 4.0 | 5.0 | 0.00 | 0.00 | 0.00 | 67 | 1009.6 |
| 20260901014139 | 65 | 359 | 2.0 | 5.0 | 0.00 | 0.00 | 0.00 | 66 | 1009.7 |
| 20260901013634 | 65 | 338 | 4.0 | 5.0 | 0.00 | 0.00 | 0.00 | 66 | 1009.6 |
| 20260901013130 | 65 | 303 | 1.0 | 4.0 | 0.00 | 0.00 | 0.00 | 66 | 1009.6 |
| 20260901012625 | 66 | 20 | 3.0 | 5.0 | 0.00 | 0.00 | 0.00 | 64 | 1009.6 |
| 20260901012120 | 66 | 150 | 2.0 | 3.0 | 0.00 | 0.00 | 0.00 | 65 | 1009.5 |
| 20260901011616 | 66 | 10 | 2.0 | 3.0 | 0.00 | 0.00 | 0.00 | 64 | 1009.7 |
| 20260901011115 | 67 | 75 | 0.0 | 3.0 | 0.00 | 0.00 | 0.00 | 64 | 1009.5 |
| 20260901010610 | 66 | 324 | 4.0 | 4.0 | 0.00 | 0.00 | 0.00 | 64 | 1009.7 |
| 20260901010109 | 66 | 353 | 0.0 | 4.0 | 0.00 | 0.00 | 0.00 | 64 | 1009.8 |
| 20260901005604 | 65 | 300 | 0.0 | 4.0 | 0.00 | 0.00 | 0.00 | 66 | 1009.7 |
| 20260901005059 | 66 | 7 | 4.0 | 6.0 | 0.00 | 0.00 | 0.00 | 65 | 1009.7 |
| 20260901004558 | 66 | 11 | 3.0 | 5.0 | 0.00 | 0.00 | 0.00 | 65 | 1009.6 |
| 20260901004053 | 67 | 331 | 3.0 | 6.0 | 0.00 | 0.00 | 0.00 | 64 | 1009.9 |
| 20260901003548 | 67 | 335 | 3.0 | 6.0 | 0.00 | 0.00 | 0.00 | 63 | 1009.9 |
| 20260901003046 | 67 | 348 | 4.0 | 6.0 | 0.00 | 0.00 | 0.00 | 63 | 1009.8 |
| 20260901002546 | 67 | 345 | 4.0 | 8.0 | 0.00 | 0.00 | 0.00 | 64 | 1009.9 |
| 20260901002041 | 67 | 349 | 5.0 | 7.0 | 0.00 | 0.00 | 0.00 | 64 | 1010.0 |
| 20260901001536 | 67 | 309 | 2.0 | 5.0 | 0.00 | 0.00 | 0.00 | 65 | 1010.1 |
| 20260901001031 | 66 | 357 | 4.0 | 7.0 | 0.00 | 0.00 | 0.00 | 65 | 1010.1 |
| 20260901000531 | 66 | 329 | 5.0 | 6.0 | 0.00 | 0.00 | 0.00 | 64 | 1010.1 |
| 20260901000028 | 66 | 4 | 3.0 | 5.0 | 0.00 | 0.00 | 0.00 | 64 | 1010.0 |
| 20260831235520 | 67 | 12 | 2.0 | 4.0 | 0.00 | 0.00 | 0.00 | 62 | 1010.1 |
| 20260831235017 | 67 | 326 | 3.0 | 3.0 | 0.00 | 0.00 | 0.00 | 60 | 1010.2 |
| 20260831234511 | 68 | 272 | 1.0 | 4.0 | 0.00 | 0.00 | 0.00 | 59 | 1010.2 |
| 20260831234007 | 68 | 309 | 2.0 | 3.0 | 0.00 | 0.00 | 0.00 | 59 | 1010.3 |
| 20260831233502 | 69 | 324 | 2.0 | 4.0 | 0.00 | 0.00 | 0.00 | 58 | 1010.2 |
| 20260831232957 | 69 | 252 | 0.0 | 5.0 | 0.00 | 0.00 | 0.00 | 57 | 1010.4 |
| 20260831232453 | 70 | 292 | 2.0 | 6.0 | 0.00 | 0.00 | 0.00 | 56 | 1010.3 |
| 20260831231948 | 70 | 269 | 0.0 | 4.0 | 0.00 | 0.00 | 0.00 | 56 | 1010.4 |
| 20260831231445 | 69 | 274 | 2.0 | 4.0 | 0.00 | 0.00 | 0.00 | 58 | 1010.4 |
| 20260831230940 | 69 | 118 | 1.0 | 5.0 | 0.00 | 0.00 | 0.00 | 58 | 1010.7 |
| 20260831230435 | 69 | 262 | 2.0 | 5.0 | 0.00 | 0.00 | 0.00 | 57 | 1010.5 |
| 20260831225929 | 69 | 330 | 2.0 | 4.0 | 0.00 | 0.00 | 0.00 | 58 | 1010.8 |
| 20260831225425 | 70 | 322 | 1.0 | 5.0 | 0.00 | 0.00 | 0.00 | 57 | 1010.8 |
| 20260831224920 | 70 | 324 | 3.0 | 6.0 | 0.00 | 0.00 | 0.00 | 58 | 1011.0 |
| 20260831224420 | 70 | 338 | 4.0 | 4.0 | 0.00 | 0.00 | 0.00 | 58 | 1010.7 |
| 20260831223914 | 69 | 53 | 2.0 | 5.0 | 0.00 | 0.00 | 0.00 | 59 | 1011.0 |
| 20260831223410 | 70 | 353 | 2.0 | 2.0 | 0.00 | 0.00 | 0.00 | 59 | 1011.0 |
| 20260831222907 | 69 | 234 | 0.0 | 5.0 | 0.00 | 0.00 | 0.00 | 59 | 1011.0 |
| 20260831222402 | 71 | 263 | 1.0 | 5.0 | 0.00 | 0.00 | 0.00 | 57 | 1011.1 |
| 20260831221857 | 71 | 34 | 1.0 | 4.0 | 0.00 | 0.00 | 0.00 | 56 | 1011.1 |
| 20260831221352 | 71 | 69 | 2.0 | 4.0 | 0.00 | 0.00 | 0.00 | 56 | 1011.3 |
| 20260831220847 | 70 | 336 | 2.0 | 5.0 | 0.00 | 0.00 | 0.00 | 57 | 1011.3 |
| 20260831220337 | 70 | 342 | 2.0 | 4.0 | 0.00 | 0.00 | 0.00 | 59 | 1011.3 |
| 20260831215832 | 69 | 323 | 2.0 | 4.0 | 0.00 | 0.00 | 0.00 | 59 | 1011.4 |
| 20260831215328 | 69 | 356 | 3.0 | 4.0 | 0.00 | 0.00 | 0.00 | 59 | 1011.3 |
| 20260831214824 | 70 | 1 | 3.0 | 4.0 | 0.00 | 0.00 | 0.00 | 58 | 1011.5 |
| 20260831214322 | 69 | 355 | 3.0 | 4.0 | 0.00 | 0.00 | 0.00 | 58 | 1011.5 |
| 20260831213816 | 70 | 283 | 1.0 | 3.0 | 0.00 | 0.00 | 0.00 | 58 | 1011.5 |
| 20260831213313 | 70 | 0 | 2.0 | 3.0 | 0.00 | 0.00 | 0.00 | 59 | 1011.5 |
| 20260831212813 | 70 | 159 | 2.0 | 6.0 | 0.00 | 0.00 | 0.00 | 59 | 1011.7 |
| 20260831212310 | 70 | 344 | 2.0 | 6.0 | 0.00 | 0.00 | 0.00 | 58 | 1012.0 |
| 20260831211808 | 70 | 211 | 1.0 | 4.0 | 0.00 | 0.00 | 0.00 | 57 | 1011.7 |
| 20260831211304 | 71 | 339 | 4.0 | 4.0 | 0.00 | 0.00 | 0.00 | 57 | 1011.9 |
| 20260831210803 | 72 | 205 | 2.0 | 4.0 | 0.00 | 0.00 | 0.00 | 55 | 1011.9 |
| 20260831210300 | 72 | 151 | 3.0 | 4.0 | 0.00 | 0.00 | 0.00 | 56 | 1012.0 |
| 20260831205759 | 71 | 283 | 1.0 | 3.0 | 0.00 | 0.00 | 0.00 | 57 | 1011.9 |
| 20260831205256 | 71 | 309 | 3.0 | 4.0 | 0.00 | 0.00 | 0.00 | 57 | 1012.0 |
| 20260831204755 | 71 | 250 | 2.0 | 4.0 | 0.00 | 0.00 | 0.00 | 57 | 1012.0 |
| 20260831204254 | 70 | 3 | 2.0 | 3.0 | 0.00 | 0.00 | 0.00 | 59 | 1012.0 |
| 20260831203749 | 70 | 320 | 2.0 | 4.0 | 0.00 | 0.00 | 0.00 | 60 | 1012.1 |
| 20260831203243 | 70 | 356 | 1.0 | 6.0 | 0.00 | 0.00 | 0.00 | 59 | 1012.0 |
| 20260831202741 | 70 | 334 | 0.0 | 3.0 | 0.00 | 0.00 | 0.00 | 60 | 1012.2 |
| 20260831202236 | 69 | 329 | 2.0 | 4.0 | 0.00 | 0.00 | 0.00 | 61 | 1012.1 |
| 20260831201731 | 69 | 330 | 3.0 | 5.0 | 0.00 | 0.00 | 0.00 | 62 | 1012.3 |
| 20260831201230 | 70 | 311 | 4.0 | 5.0 | 0.00 | 0.00 | 0.00 | 60 | 1012.4 |
| 20260831200726 | 69 | 149 | 1.0 | 4.0 | 0.00 | 0.00 | 0.00 | 62 | 1012.5 |
| 20260831200220 | 70 | 272 | 0.0 | 4.0 | 0.00 | 0.00 | 0.00 | 62 | 1012.4 |
| 20260831195716 | 69 | 319 | 0.0 | 4.0 | 0.00 | 0.00 | 0.00 | 62 | 1012.4 |
| 20260831195211 | 69 | 329 | 2.0 | 4.0 | 0.00 | 0.00 | 0.00 | 61 | 1012.5 |
| 20260831194706 | 69 | 185 | 2.0 | 3.0 | 0.00 | 0.00 | 0.00 | 62 | 1012.6 |
| 20260831194202 | 69 | 283 | 1.0 | 4.0 | 0.00 | 0.00 | 0.00 | 64 | 1012.5 |
| 20260831193701 | 68 | 8 | 0.0 | 5.0 | 0.00 | 0.00 | 0.00 | 63 | 1012.4 |
| 20260831193156 | 67 | 319 | 5.0 | 5.0 | 0.00 | 0.00 | 0.00 | 65 | 1012.6 |
| 20260831192651 | 67 | 9 | 2.0 | 4.0 | 0.00 | 0.00 | 0.00 | 66 | 1012.8 |
| 20260831192147 | 67 | 245 | 2.0 | 4.0 | 0.00 | 0.00 | 0.00 | 65 | 1012.8 |
| 20260831191642 | 67 | 67 | 2.0 | 4.0 | 0.00 | 0.00 | 0.00 | 67 | 1012.9 |
| 20260831191138 | 67 | 78 | 2.0 | 4.0 | 0.00 | 0.00 | 0.00 | 67 | 1013.0 |
| 20260831190633 | 67 | 343 | 4.0 | 5.0 | 0.00 | 0.00 | 0.00 | 64 | 1013.0 |
| 20260831190132 | 68 | 278 | 2.0 | 4.0 | 0.00 | 0.00 | 0.00 | 64 | 1013.0 |
| 20260831185628 | 68 | 351 | 2.0 | 5.0 | 0.00 | 0.00 | 0.00 | 63 | 1012.9 |
| 20260831185124 | 68 | 42 | 1.0 | 4.0 | 0.00 | 0.00 | 0.00 | 63 | 1013.3 |
| 20260831184623 | 68 | 81 | 2.0 | 5.0 | 0.00 | 0.00 | 0.00 | 64 | 1013.1 |
| 20260831184119 | 68 | 34 | 3.0 | 3.0 | 0.00 | 0.00 | 0.00 | 64 | 1013.0 |
| 20260831183618 | 68 | 29 | 0.0 | 3.0 | 0.00 | 0.00 | 0.00 | 64 | 1013.1 |
| 20260831183118 | 68 | 42 | 0.0 | 5.0 | 0.00 | 0.00 | 0.00 | 64 | 1013.1 |
| 20260831182617 | 67 | 250 | 3.0 | 4.0 | 0.00 | 0.00 | 0.00 | 65 | 1013.5 |
| 20260831182114 | 67 | 358 | 5.0 | 5.0 | 0.00 | 0.00 | 0.00 | 67 | 1013.4 |
| 20260831181613 | 66 | 6 | 4.0 | 5.0 | 0.00 | 0.00 | 0.00 | 67 | 1013.5 |
| 20260831181108 | 66 | 99 | 1.0 | 4.0 | 0.00 | 0.00 | 0.00 | 65 | 1013.4 |
| 20260831180603 | 66 | 198 | 2.0 | 4.0 | 0.00 | 0.00 | 0.00 | 68 | 1013.5 |
| 20260831180058 | 66 | 350 | 2.0 | 3.0 | 0.00 | 0.00 | 0.00 | 68 | 1013.6 |
| 20260831175558 | 65 | 353 | 2.0 | 4.0 | 0.00 | 0.00 | 0.00 | 69 | 1013.5 |
| 20260831175055 | 64 | 199 | 2.0 | 3.0 | 0.00 | 0.00 | 0.00 | 72 | 1013.5 |
| 20260831174550 | 64 | 3 | 3.0 | 4.0 | 0.00 | 0.00 | 0.00 | 72 | 1013.7 |
| 20260831174050 | 64 | 356 | 2.0 | 4.0 | 0.00 | 0.00 | 0.00 | 70 | 1013.7 |
| 20260831173548 | 64 | 162 | 3.0 | 3.0 | 0.00 | 0.00 | 0.00 | 71 | 1013.8 |
| 20260831173045 | 64 | 12 | 0.0 | 4.0 | 0.00 | 0.00 | 0.00 | 72 | 1013.7 |
| 20260831172539 | 64 | 349 | 1.0 | 3.0 | 0.00 | 0.00 | 0.00 | 73 | 1013.6 |
| 20260831172034 | 64 | 220 | 5.0 | 5.0 | 0.00 | 0.00 | 0.00 | 72 | 1013.8 |
| 20260831171530 | 63 | 346 | 0.0 | 3.0 | 0.00 | 0.00 | 0.00 | 74 | 1013.7 |
| 20260831171027 | 63 | 162 | 0.0 | 3.0 | 0.00 | 0.00 | 0.00 | 74 | 1013.7 |
| 20260831170522 | 63 | 145 | 3.0 | 4.0 | 0.00 | 0.00 | 0.00 | 75 | 1013.8 |
| 20260831170020 | 62 | 55 | 2.0 | 4.0 | 0.00 | 0.00 | 0.00 | 76 | 1013.8 |
| 20260831165520 | 62 | 11 | 3.0 | 3.0 | 0.00 | 0.00 | 0.00 | 76 | 1013.8 |
| 20260831165017 | 62 | 9 | 4.0 | 5.0 | 0.00 | 0.00 | 0.00 | 75 | 1013.8 |
| 20260831164513 | 62 | 60 | 2.0 | 3.0 | 0.00 | 0.00 | 0.00 | 77 | 1013.9 |
| 20260831164008 | 61 | 149 | 0.0 | 4.0 | 0.00 | 0.00 | 0.00 | 77 | 1013.9 |
| 20260831163503 | 60 | 68 | 2.0 | 5.0 | 0.00 | 0.00 | 0.00 | 78 | 1013.8 |
| 20260831163002 | 60 | 129 | 6.0 | 6.0 | 0.00 | 0.00 | 0.00 | 78 | 1014.0 |
| 20260831162457 | 60 | 69 | 3.0 | 3.0 | 0.00 | 0.00 | 0.00 | 81 | 1013.8 |
| 20260831161955 | 59 | 113 | 3.0 | 4.0 | 0.00 | 0.00 | 0.00 | 89 | 1013.9 |
| 20260831161452 | 59 | 89 | 3.0 | 5.0 | 0.00 | 0.00 | 0.00 | 86 | 1013.9 |
| 20260831160948 | 59 | 79 | 2.0 | 3.0 | 0.00 | 0.00 | 0.00 | 84 | 1014.1 |
| 20260831160447 | 58 | 147 | 2.0 | 5.0 | 0.00 | 0.00 | 0.00 | 88 | 1014.0 |
| 20260831155942 | 57 | 168 | 3.0 | 4.0 | 0.00 | 0.00 | 0.00 | 91 | 1014.2 |
| 20260831155436 | 57 | 204 | 0.0 | 4.0 | 0.00 | 0.00 | 0.00 | 93 | 1014.3 |
| 20260831154931 | 57 | 120 | 2.0 | 4.0 | 0.00 | 0.00 | 0.00 | 93 | 1014.3 |
| 20260831154428 | 57 | 153 | 3.0 | 4.0 | 0.00 | 0.00 | 0.00 | 94 | 1014.2 |
| 20260831153926 | 56 | 157 | 4.0 | 4.0 | 0.00 | 0.00 | 0.00 | 93 | 1014.4 |
| 20260831153423 | 57 | 114 | 2.0 | 3.0 | 0.00 | 0.00 | 0.00 | 93 | 1014.3 |
| 20260831152919 | 57 | 121 | 3.0 | 4.0 | 0.00 | 0.00 | 0.00 | 92 | 1014.2 |
| 20260831152414 | 56 | 158 | 2.0 | 3.0 | 0.00 | 0.00 | 0.00 | 93 | 1014.3 |
| 20260831151909 | 56 | 126 | 2.0 | 2.0 | 0.00 | 0.00 | 0.00 | 94 | 1014.3 |
| 20260831151408 | 56 | 130 | 2.0 | 2.0 | 0.00 | 0.00 | 0.00 | 94 | 1014.2 |
| 20260831150903 | 56 | 113 | 2.0 | 2.0 | 0.00 | 0.00 | 0.00 | 93 | 1014.4 |
| 20260831150359 | 57 | 114 | 2.0 | 3.0 | 0.00 | 0.00 | 0.00 | 91 | 1014.2 |
| 20260831145858 | 56 | 115 | 2.0 | 2.0 | 0.00 | 0.00 | 0.00 | 89 | 1014.1 |
| 20260831145355 | 56 | 86 | 1.0 | 2.0 | 0.00 | 0.00 | 0.00 | 89 | 1014.2 |
| 20260831144850 | 56 | 117 | 2.0 | 3.0 | 0.00 | 0.00 | 0.00 | 90 | 1014.3 |
| 20260831144346 | 56 | 105 | 2.0 | 3.0 | 0.00 | 0.00 | 0.00 | 91 | 1014.2 |
| 20260831143846 | 55 | 78 | 0.0 | 3.0 | 0.00 | 0.00 | 0.00 | 91 | 1014.1 |
| 20260831143341 | 55 | 92 | 1.0 | 2.0 | 0.00 | 0.00 | 0.00 | 93 | 1014.3 |
| 20260831142837 | 55 | 94 | 0.0 | 1.0 | 0.00 | 0.00 | 0.00 | 93 | 1014.2 |
| 20260831142332 | 55 | 89 | 0.0 | 3.0 | 0.00 | 0.00 | 0.00 | 94 | 1014.2 |
| 20260831141826 | 54 | 68 | 2.0 | 3.0 | 0.00 | 0.00 | 0.00 | 94 | 1014.3 |
| 20260831141321 | 54 | 156 | 0.0 | 3.0 | 0.00 | 0.00 | 0.00 | 94 | 1014.2 |
| 20260831140816 | 54 | 110 | 2.0 | 3.0 | 0.00 | 0.00 | 0.00 | 94 | 1014.2 |
| 20260831140311 | 54 | 40 | 2.0 | 2.0 | 0.00 | 0.00 | 0.00 | 94 | 1014.2 |
| 20260831135808 | 54 | 352 | 1.0 | 3.0 | 0.00 | 0.00 | 0.00 | 94 | 1014.2 |
| 20260831135306 | 54 | 96 | 1.0 | 2.0 | 0.00 | 0.00 | 0.00 | 94 | 1014.0 |
| 20260831134759 | 54 | 49 | 1.0 | 4.0 | 0.00 | 0.00 | 0.00 | 94 | 1014.1 |
| 20260831134255 | 54 | 40 | 1.0 | 4.0 | 0.00 | 0.00 | 0.00 | 95 | 1013.9 |
| 20260831133754 | 54 | 66 | 0.0 | 3.0 | 0.00 | 0.00 | 0.00 | 95 | 1014.0 |
| 20260831133248 | 54 | 103 | 2.0 | 2.0 | 0.00 | 0.00 | 0.00 | 95 | 1013.9 |
| 20260831132743 | 54 | 97 | 1.0 | 2.0 | 0.00 | 0.00 | 0.00 | 95 | 1014.0 |
| 20260831132238 | 54 | 92 | 1.0 | 3.0 | 0.00 | 0.00 | 0.00 | 95 | 1014.1 |
| 20260831131732 | 54 | 138 | 2.0 | 3.0 | 0.00 | 0.00 | 0.00 | 95 | 1014.1 |
| 20260831131229 | 54 | 149 | 2.0 | 3.0 | 0.00 | 0.00 | 0.00 | 95 | 1014.2 |
| 20260831130724 | 54 | 111 | 2.0 | 3.0 | 0.00 | 0.00 | 0.00 | 94 | 1014.3 |
| 20260831130219 | 54 | 142 | 2.0 | 4.0 | 0.00 | 0.00 | 0.00 | 95 | 1014.4 |
| 20260831125717 | 54 | 60 | 1.0 | 5.0 | 0.00 | 0.00 | 0.00 | 95 | 1014.4 |
| 20260831125214 | 54 | 110 | 3.0 | 4.0 | 0.00 | 0.00 | 0.00 | 95 | 1014.4 |
| 20260831124708 | 54 | 101 | 2.0 | 3.0 | 0.00 | 0.00 | 0.00 | 95 | 1014.7 |
| 20260831124205 | 54 | 121 | 2.0 | 2.0 | 0.00 | 0.00 | 0.00 | 94 | 1014.8 |
| 20260831123704 | 54 | 97 | 0.0 | 2.0 | 0.00 | 0.00 | 0.00 | 94 | 1014.6 |
| 20260831123203 | 54 | 104 | 3.0 | 4.0 | 0.00 | 0.00 | 0.00 | 94 | 1014.7 |
| 20260831122658 | 54 | 95 | 2.0 | 3.0 | 0.00 | 0.00 | 0.00 | 94 | 1014.7 |
| 20260831122154 | 54 | 92 | 2.0 | 4.0 | 0.00 | 0.00 | 0.00 | 94 | 1014.8 |
| 20260831121653 | 54 | 115 | 3.0 | 4.0 | 0.00 | 0.00 | 0.00 | 94 | 1014.8 |
| 20260831121150 | 55 | 146 | 4.0 | 4.0 | 0.00 | 0.00 | 0.00 | 93 | 1014.9 |
| 20260831120645 | 55 | 116 | 3.0 | 5.0 | 0.00 | 0.00 | 0.00 | 93 | 1015.0 |
| 20260831120145 | 55 | 115 | 2.0 | 3.0 | 0.00 | 0.00 | 0.00 | 93 | 1014.8 |
| 20260831115641 | 55 | 102 | 2.0 | 2.0 | 0.00 | 0.00 | 0.00 | 93 | 1014.9 |
| 20260831115136 | 55 | 41 | 0.0 | 3.0 | 0.00 | 0.00 | 0.00 | 93 | 1015.0 |
| 20260831114635 | 55 | 44 | 2.0 | 2.0 | 0.00 | 0.00 | 0.00 | 93 | 1015.2 |
| 20260831114130 | 55 | 89 | 1.0 | 2.0 | 0.00 | 0.00 | 0.00 | 93 | 1015.3 |
| 20260831113630 | 55 | 43 | 2.0 | 3.0 | 0.00 | 0.00 | 0.00 | 94 | 1015.1 |
| 20260831113125 | 55 | 87 | 3.0 | 3.0 | 0.00 | 0.00 | 0.00 | 93 | 1015.4 |
| 20260831112624 | 55 | 132 | 4.0 | 4.0 | 0.00 | 0.00 | 0.00 | 93 | 1015.3 |
| 20260831112119 | 55 | 145 | 3.0 | 3.0 | 0.00 | 0.00 | 0.00 | 93 | 1015.1 |
| 20260831111615 | 55 | 158 | 2.0 | 4.0 | 0.00 | 0.00 | 0.00 | 93 | 1015.3 |
| 20260831111111 | 55 | 69 | 2.0 | 4.0 | 0.00 | 0.00 | 0.00 | 93 | 1015.2 |
| 20260831110606 | 55 | 188 | 3.0 | 4.0 | 0.00 | 0.00 | 0.00 | 93 | 1015.4 |
| 20260831105600 | 55 | 16 | 2.0 | 6.0 | 0.00 | 0.00 | 0.00 | 93 | 1015.4 |
| 20260831105055 | 55 | 100 | 2.0 | 4.0 | 0.00 | 0.00 | 0.00 | 93 | 1015.4 |
| 20260831104551 | 55 | 91 | 2.0 | 4.0 | 0.00 | 0.00 | 0.00 | 93 | 1015.4 |
| 20260831104048 | 55 | 101 | 1.0 | 4.0 | 0.00 | 0.00 | 0.00 | 93 | 1015.3 |
| 20260831103543 | 55 | 11 | 2.0 | 2.0 | 0.00 | 0.00 | 0.00 | 93 | 1015.5 |
| 20260831103038 | 55 | 61 | 1.0 | 2.0 | 0.00 | 0.00 | 0.00 | 93 | 1015.5 |
| 20260831102532 | 55 | 109 | 2.0 | 3.0 | 0.00 | 0.00 | 0.00 | 93 | 1015.6 |
| 20260831102027 | 55 | 77 | 0.0 | 3.0 | 0.00 | 0.00 | 0.00 | 93 | 1015.6 |
| 20260831101522 | 55 | 103 | 2.0 | 3.0 | 0.00 | 0.00 | 0.00 | 93 | 1015.6 |
| 20260831101019 | 55 | 109 | 2.0 | 2.0 | 0.00 | 0.00 | 0.00 | 93 | 1015.7 |
| 20260831100514 | 55 | 93 | 2.0 | 4.0 | 0.00 | 0.00 | 0.00 | 92 | 1015.7 |
| 20260831100010 | 55 | 89 | 3.0 | 4.0 | 0.00 | 0.00 | 0.00 | 91 | 1015.8 |
| 20260831095508 | 55 | 202 | 0.0 | 2.0 | 0.00 | 0.00 | 0.00 | 92 | 1015.8 |
| 20260831095003 | 55 | 94 | 2.0 | 2.0 | 0.00 | 0.00 | 0.00 | 92 | 1015.9 |
| 20260831094459 | 56 | 335 | 0.0 | 2.0 | 0.00 | 0.00 | 0.00 | 92 | 1016.0 |
| 20260831093955 | 56 | 53 | 2.0 | 4.0 | 0.00 | 0.00 | 0.00 | 92 | 1016.1 |
| 20260831093450 | 55 | 101 | 3.0 | 4.0 | 0.00 | 0.00 | 0.00 | 92 | 1016.0 |
| 20260831092946 | 56 | 54 | 2.0 | 2.0 | 0.00 | 0.00 | 0.00 | 92 | 1016.3 |
| 20260831092442 | 56 | 0 | 2.0 | 2.0 | 0.00 | 0.00 | 0.00 | 92 | 1016.1 |
| 20260831091937 | 56 | 65 | 1.0 | 2.0 | 0.00 | 0.00 | 0.00 | 92 | 1016.3 |
| 20260831091432 | 56 | 172 | 2.0 | 3.0 | 0.00 | 0.00 | 0.00 | 91 | 1016.5 |
| 20260831090922 | 56 | 153 | 2.0 | 4.0 | 0.00 | 0.00 | 0.00 | 92 | 1016.4 |
| 20260831090418 | 56 | 224 | 0.0 | 2.0 | 0.00 | 0.00 | 0.00 | 92 | 1016.4 |
| 20260831085914 | 55 | 107 | 3.0 | 4.0 | 0.00 | 0.00 | 0.00 | 93 | 1016.4 |
| 20260831085409 | 55 | 113 | 2.0 | 3.0 | 0.00 | 0.00 | 0.00 | 92 | 1016.3 |
| 20260831084908 | 56 | 87 | 0.0 | 3.0 | 0.00 | 0.00 | 0.00 | 91 | 1016.5 |
| 20260831084405 | 55 | 50 | 0.0 | 0.0 | 0.00 | 0.00 | 0.00 | 93 | 1016.3 |
| 20260831083901 | 55 | 7 | 3.0 | 4.0 | 0.00 | 0.00 | 0.00 | 93 | 1016.3 |
| 20260831083356 | 55 | 149 | 3.0 | 3.0 | 0.00 | 0.00 | 0.00 | 93 | 1016.3 |
| 20260831082855 | 55 | 99 | 1.0 | 3.0 | 0.00 | 0.00 | 0.00 | 94 | 1016.5 |
| 20260831082354 | 55 | 195 | 1.0 | 2.0 | 0.00 | 0.00 | 0.00 | 94 | 1016.7 |
| 20260831081850 | 55 | 116 | 0.0 | 0.0 | 0.00 | 0.00 | 0.00 | 94 | 1016.7 |
| 20260831081345 | 55 | 100 | 2.0 | 4.0 | 0.00 | 0.00 | 0.00 | 94 | 1016.7 |